Torna al catalogo

THOR ABLESTAR DEB *

AttivoLEO
NORAD 13502·DEBRIS·🇺🇸 United States

Lanciato Jun 29, 1961 da Cape Canaveral Space Force Station

Loading…

Prossimi Passaggi (prossime 24 ore)

TLE

AggiornatoSource: Space-Track

Epoca: Sep 14, 2026, 04:46 UTC

1 13502U 61015KT  26257.19903057  .00003203  00000-0  25758-2 0  9997
2 13502  66.4441 319.1825 0255283 181.8335 213.0234 13.77708413163030

Traccia THOR ABLESTAR DEB * in tempo reale con AllMySat

Download on the App Store